Regional Weather Roundup
Issued by NWS

Home | Current Version | Previous Version | Text Only | Print | Product List | Glossary Off
Versions: 1 2 3 4 5 6 7 8 9 10 11 12 13 14 15

000
ASUS45 KTFX 152210
RWRMT
MONTANA REGIONAL WEATHER ROUNDUP
NATIONAL WEATHER SERVICE GREAT FALLS MT
300 PM MST SUN JAN 15 2017

NOTE: "FAIR" INDICATES FEW OR NO CLOUDS BELOW 12000 FEET WITH NO
SIGNIFICANT WEATHER AND/OR OBSTRUCTIONS TO VISIBILITY.

MTZ001>007-043-152300-
WEST OF THE DIVIDE

CITY           SKY/WX    TMP DP  RH WIND       PRES   REMARKS
KALISPELL      LGT SNOW  15  11  83 CALM      30.27R
MISSOULA         N/A      5  -1  76 CALM      30.27F
BUTTE          CLOUDY    14   4  64 S3        30.07F
MULLAN PASS      N/A     24  11  57 CALM      30.08S
ANACONDA         N/A     21   3  45 CALM      30.10S
DEER LODGE       N/A      9   0  66 N6        30.17R WCI  -1
EUREKA           N/A     18   9  68 CALM      30.30S
HAMILTON         N/A      7   1  78 CALM      30.24S
RONAN            N/A      6   1  80 MISG      30.26F
THOMPSON FALLS   N/A     12   5  73 E13       30.30F WCI  -3
$$

MTZ008-052>055-152300-
SOUTHWEST MONTANA

CITY           SKY/WX    TMP DP  RH WIND       PRES   REMARKS
BOZEMAN        CLOUDY    15   4  61 CALM      30.11S
DILLON         CLOUDY    26   1  34 S7        30.08S WCI  18
W YELLOWSTONE  CLOUDY    14   5  67 CALM      30.06S
ENNIS          SUNNY     14   7  73 NW5       30.11S
TWIN BRIDGES     N/A     15   0  51 S6        30.08S WCI   6
$$

MTZ009-010-012-014-046-048-049-054-152300-
EAST SLOPES AND CENTRAL MONTANA

CITY           SKY/WX    TMP DP  RH WIND       PRES   REMARKS
CUT BANK         N/A     34  15  46 W25       29.93R WCI  21
GREAT FALLS    CLOUDY    32  14  47 SW20      29.96S WCI  20
MALMSTROM AFB  CLOUDY    33  18  53 SW21      29.98R WCI  21
HELENA         CLOUDY     5  -3  69 CALM      30.14R HAZE
AUGUSTA          N/A     36  13  39 W16       29.94S WCI  26
BOWMANS CRNR     N/A     24  10  54 S20       29.96S WCI  10
CHOTEAU          N/A     37  12  35 W9        29.95S WCI  31
CONRAD           N/A     38  19  46 S12       29.95R WCI  30
FAIRFIELD        N/A     29  14  53 SW18      29.94S WCI  17
POWER            N/A     28  16  59 SW16      29.95S WCI  17
RAYNESFORD       N/A     40  15  37 W6        29.97R
ULM            PTSUNNY   30  16  55 MISG      29.99S
$$

MTZ011-013-016-021-045-047-050-051-152300-
NORTH CENTRAL MONTANA

CITY           SKY/WX    TMP DP  RH WIND       PRES   REMARKS
HAVRE          CLOUDY    29  20  69 SW23      29.94R WCI  15
N BAR RANCH      N/A     39  10  30 NW18      29.94S WCI  30
CHINOOK          N/A     30  18  59 W8        29.94S WCI  23
DENTON           N/A     35  19  51 W14       29.91R WCI  26
FORT BENTON      N/A     37  18  44 MISG      29.98R
GEYSER           N/A     35  17  48 W13       29.94R WCI  27
GRASS RANGE      N/A     39  15  36 W17       29.91R WCI  30
JUDITH GAP       N/A     32  13  45 W9        29.94R WCI  25
ROY              N/A     37  17  43 MISG      29.93R
STANFORD         N/A     35  19  53 NW13      29.94R WCI  26
WINIFRED         N/A     35  17  48 W9        29.94R WCI  28
$$

MTZ017>020-022>027-061-062-152300-
NORTHEAST MONTANA

CITY           SKY/WX    TMP DP  RH WIND       PRES   REMARKS
GLASGOW        CLOUDY    13   5  70 VRB3      29.94F
JORDAN           N/A     30  18  60 W10       29.94S WCI  21
SIDNEY         CLOUDY    18   9  68 SW12      30.00R WCI   5
WOLF POINT     CLOUDY    14   3  61 SW6       29.97S WCI   5
PLENTYWOOD       N/A     14   9  79 SE8       29.91S WCI   3
POPLAR           N/A     14   3  62 CALM      29.97S
SCOBEY           N/A     22   5  47 S5        29.89S
$$

MTZ028>42-056>058-152300-
SOUTHCENTRAL AND SOUTHEAST MONTANA

CITY           SKY/WX    TMP DP  RH WIND       PRES   REMARKS
BAKER          CLOUDY    29  10  45 SW13      29.99S WCI  19
BILLINGS       CLOUDY    29  11  47 SW15      29.99R WCI  18
LIVINGSTON     SUNNY     30  11  45 W13       30.02S WCI  20
MILES CITY     CLOUDY    15   4  61 SE6       30.01R WCI   6
BIG TIMBER     SUNNY     34  10  37 W32G41    29.96F WCI  20
EKALAKA          N/A     31   7  36 SW9       29.97R WCI  23
FORSYTH          N/A     18   5  57 CALM      30.00R
HARLOWTON        N/A     34  12  40 W29G37    29.95S WCI  21
LAUREL           N/A     25   8  48 S18       29.98S WCI  12
$$

REGIONAL REPORTS...DAKOTAS

CITY           SKY/WX    TMP DP  RH WIND       PRES   REMARKS
WILLISTON      CLOUDY    18   7  62 SW7       29.97F WCI   9
MINOT          CLOUDY    23  11  60 SW10      29.94S WCI  12
DICKINSON      CLOUDY    22  12  65 W12       29.96R WCI  10
BEACH            N/A     27   9  46 W12       30.01R WCI  16
CROSBY           N/A     16   9  73 S16       29.93S WCI   0
TIOGA            N/A     16   9  73 SW9       29.95S WCI   4
WATFORD CITY     N/A     19  10  68 SW10      29.98S WCI   8
BISMARCK       CLOUDY    10   3  73 SE6       30.06S WCI   0
GRAND FORKS    CLOUDY    17   8  67 S14       30.02F WCI   3
FARGO          CLOUDY    22  15  75 S12       30.10S WCI  10
BUFFALO SD       N/A     25  15  66 N10       29.94S WCI  15
RAPID CITY     CLOUDY    29  14  53 CALM      30.00S
$$

REGIONAL REPORTS...WYOMING/IDAHO/WASHINGTON

CITY           SKY/WX    TMP DP  RH WIND       PRES   REMARKS
GILLETTE       CLOUDY    34  19  54 S3        29.98F
SHERIDAN       CLOUDY    23   7  50 SE10      29.97F WCI  12
BUFFALO WY     CLOUDY    33   6  32 NW3       29.95S
CODY           CLOUDY    20   7  57 S6        29.99F WCI  12
YELLOWSTONE LA   N/A      1  -5  75 CALM      30.04F
IDAHO FALLS    CLOUDY    11   6  81 SW8       30.17R WCI  -1
SALMON         CLOUDY    -8 -11  84 CALM      30.39S
BOISE          CLOUDY    13   7  77 NW6       30.34S HAZE    WCI   4
SPOKANE        PTSUNNY   11   7  84 CALM      30.31F
$$

REGIONAL REPORTS...ALBERTA

CITY           SKY/WX    TMP DP  RH WIND       PRES   REMARKS
EDMONTON       CLEAR     43  19  39 W12       29.82S
CALGARY        MOSUNNY   43  16  33 W18G28    29.89R
LETHBRIDGE     MOSUNNY   32  21  64 W18G26    29.91R WCI  20
MEDICINE HAT   PTSUNNY   34  21  60 W2        29.90R
WATERTON GATE    N/A     34  10  37 SW28G41     N/A  WCI  20
CARDSTON         N/A     37  14  38 W20G26      N/A  WCI  27
MILK RIVER       N/A     32  23  69 W15         N/A  WCI  22
$$

REGIONAL REPORTS...SASKATCHEWAN

CITY           SKY/WX    TMP DP  RH WIND       PRES   REMARKS
SWIFT CURRENT  MOSUNNY   28  21  74 W16       29.84R WCI  17
REGINA         MOCLDY    21  14  73 S7        29.86R WCI  13
SASKATOON      MOCLDY    27  21  80 SW7       29.83R WCI  19
CYPRESS HILLS    N/A     34  12  40 NW10G20     N/A  WCI  26
VAL MARIE        N/A     14   7  73 SW3         N/A
ROCKGLEN         N/A     23  12  63 W15         N/A  WCI  10
ASSINIBOIA       N/A     41  23  48 NW12        N/A
$$




USA.gov is the U.S. government's official web portal to all federal, state and local government web resources and services.